Regional Weather Roundup
Issued by NWS

Home | Current Version | Previous Version | Graphics & Text | Print | Product List | Glossary On
Versions: 1 2 3 4 5 6 7 8 9 10 11 12 13 14 15 16 17 18 19 20 21 22 23 24 25 26 27
000
ASUS45 KCYS 210510
RWRWY

WYOMING REGIONAL WEATHER ROUNDUP
NATIONAL WEATHER SERVICE CHEYENNE WY
1100 PM MDT FRI OCT 20 2017

NOTE:  "FAIR" INDICATES FEW OR NO CLOUDS BELOW 12,000 FEET
WITH NO SIGNIFICANT WEATHER AND/OR OBSTRUCTIONS TO VISIBILITY.

WYZ001-210600-
YELLOWSTONE NATIONAL PARK

CITY           SKY/WX    TMP DP  RH WIND       PRES   REMARKS
LK YELLOWSTONE   N/A     25  22  88 VRB7      29.82R WCI  17
W YELLOWSTONE  NOT AVBL

$$
WYZ002>013-054>058-071-098>099-210600-
NORTHERN WYOMING

CITY           SKY/WX    TMP DP  RH WIND       PRES   REMARKS
JACKSON        CLOUDY    31  27  85 S8        29.84R FOG     WCI  23
CODY           FAIR      41  23  48 W10       29.71R
GREYBULL       FAIR      48  19  31 NW17G28   29.65R
WORLAND        CLOUDY    46  21  37 N6        29.68R
SHERIDAN       FAIR      46  25  43 NW28G39   29.60R
BUFFALO        FAIR      44  22  41 N28G43    29.58R
GILLETTE       MOCLDY    49  25  39 NW26G36   29.58R
HULETT         LGT RAIN  54  37  54 NW8G23    29.55R
NEWCASTLE      FAIR      59  30  33 NW18G26   29.54R

$$
WYZ014>020-022>026-101>103-210600-
CENTRAL WYOMING

CITY           SKY/WX    TMP DP  RH WIND       PRES   REMARKS
BIG PINEY      FAIR      25  18  74 CALM      29.86R
PINEDALE       FAIR      25  23  93 CALM      29.87R
DUBOIS         SNOW      28  25  86 NW18      29.77R VSB 1/2 WCI  16
LANDER         FAIR      39  13  34 SW8       29.73R WCI  33
RIVERTON       FAIR      38  20  48 NW23G29   29.73R WCI  27
CASPER         FAIR      45  20  36 W21       29.69R
DOUGLAS        CLOUDY    50  26  39 W22G32    29.62R

$$
WYZ021-027>030-104>119-210600-
SOUTHERN WYOMING

CITY           SKY/WX    TMP DP  RH WIND       PRES   REMARKS
EVANSTON       FAIR      28  20  71 W16       29.94R WCI  16
FORT BRIDGER   FAIR      30  23  75 W13       29.95R WCI  20
ROCK SPRINGS   FAIR      31  20  63 W17       29.89R WCI  19
DIXON          CLOUDY    32  31  96 SE5       29.93S WCI  27
RAWLINS        CLOUDY    36  20  52 W13       29.85R WCI  27
SARATOGA       CLOUDY    32  30  93 SW10      29.88R WCI  24
LARAMIE        LGT RAIN  38  30  73 W13       29.75R WCI  30
CHEYENNE       FAIR      44  30  57 NW23G37   29.63R
TORRINGTON     FAIR      57  33  40 W17G28    29.56R
PINE BLUFFS    FAIR      48  34  57 NW15G24   29.60R

$$




USA.gov is the U.S. government's official web portal to all federal, state and local government web resources and services.